Orbital Elements at Epoch 2459000.5 (2020-May-31.0) TDB
Reference: JPL 20 (heliocentric ecliptic J2000)
Element | Value | Uncertainty (1-sigma) | Units |
e | .1334629915610146 | 3.6339e-08 | |
a | 2.337641548209647 | 8.9312e-09 | au |
q | 2.025652913988266 | 8.3937e-08 | au |
i | 5.63251488149209 | 3.8236e-06 | deg |
node | 351.4101330272929 | 4.1875e-05 | deg |
peri | 220.8893800811775 | 4.4443e-05 | deg |
M | 162.2350636837253 | 1.584e-05 | deg |
tp | 2458412.188244916644 (2018-Oct-20.68824492) | 5.6096e-05 | TDB |
period | 1305.465212149783 3.57 | 7.4815e-06 2.048e-08 | d yr |
n | .2757637634841051 | 1.5804e-09 | deg/d |
Q | 2.649630182431028 | 1.0123e-08 | au |
|
| | Orbit Determination Parameters
Additional Information
|